Location: Plainartige
(45.6866°N, 1.7993°E)
Time: 22:41:11
(UTC+00:00)

POLYITAN 1 - Pass Details

Date: 28 June 2022
Orbit: 586 x 605 km, 98.0° (Epoch: 16 August)

Event Time Altitude Azimuth Distance (km) Brightness Sun altitude
Rises 00:48:42 0° 26° (NNE) 2,855 ? -20.0°
Reaches altitude 10° 00:51:16 10° 41° (NE) 1,951 ? -19.9°
Maximum altitude 00:54:38 23° 94° (E) 1,312 ? -19.8°
Enters shadow 00:56:20 18° 127° (SE) 1,505 ? -19.7°
